STARLINK-32656 (62452 NORAD) Tracking and Keplerian Element Data

This shows tracking and keplerian element data for the satellite.

Feedback or suggestion? Click here.




ElementValue
Catalog62452
NameSTARLINK-32656
Epoch Orbit664
Epoch Day35.16668981
Epoch Year2025
RAAN34.7289
Inclination53.1594
Eccentricity0.0001457
Argument of Perigee112.0386
Mean Anonmoly316.0858
Mean Motion15.39517785
Decay Rate0.00067905
L11 62452U 24251W 25035.16668981 .00067905 00000+0 16982-2 0 9997
L22 62452 53.1594 34.7289 0001457 112.0386 316.0858 15.39517785 6647



Live tracking and technical data element details for STARLINK-32656 (NORAD 62452). STARLINK-32656 can be tracked NOW for your location showing map with azimuth and elevation plus other details from your city location.







IsCatalogInMostPopularTable: catalog: 62452, numindb: 13
Update: records affected: 1



GetName: 62452 STARLINK-32656

Hit Count: updated at: Sun, 18 May 2025 22:48:39 GMT